Regional Weather Roundup
Issued by NWS

Home | Current Version | Previous Version | Graphics & Text | Print | Product List | Glossary On
Versions: 1 2 3 4 5 6 7 8 9 10 11 12 13 14 15 16 17 18 19 20 21 22 23 24 25 26 27 28 29 30 31 32 33 34 35 36 37 38 39 40 41 42 43 44 45 46 47 48 49 50
047
ASUS44 KLIX 271507
RWRLA
LOUISIANA WEATHER ROUNDUP
NATIONAL WEATHER SERVICE NEW ORLEANS LA
1000 AM CDT FRI MAR 27 2015

NOTE: "FAIR" INDICATES FEW OR NO CLOUDS BELOW 12,000 FEET WITH NO
      SIGNIFICANT WEATHER AND/OR OBSTRUCTIONS TO VISIBILITY.
      SKY/WX - SKY CONDITION AND SIGNIFICANT WEATHER.
      TMP - AIR TEMPERATURE.    DP   - DEWPOINT TEMPERATURE.
      RH  - RELATIVE HUMIDITY.  PRES - PRESSURE.
      HX  - HEAT INDEX.         WCI  - WIND CHILL INDEX.

*  THESE STATIONS ARE NOT NWS OR FAA STATIONS AND ARE NOT UNDER
   NWS QUALITY CONTROL.

LAZ040-048-061>063-065-066-069-271600-
SOUTHEAST LOUISIANA

CITY           SKY/WX    TMP DP  RH WIND       PRES   REMARKS
N.O. AUDUBON   NOT AVBL
N.O. INTL ARPT MOSUNNY   55  43  63 N16       30.08R
N.O. LAKEFRONT SUNNY     57  45  64 NW18      30.08R
SLIDELL        SUNNY     55  42  61 N10G17    30.06R
BATON ROUGE    SUNNY     55  33  43 N8        30.11R
BOOTHVILLE     MOSUNNY   57  48  72 NW17G25   30.04R
BELLE CHASSE   PTSUNNY   56  44  64 NW9G20    30.06R
BOGALUSA*        N/A     55  39  54 N8        30.08S
GALLIANO*      SUNNY     58  48  68 MISG      30.07R
NEW ROADS*     FAIR      54  37  52 NW8       30.12F
GONZALES*      FAIR      56  29  35 N9G20     30.10R
HAMMOND*       SUNNY     57  30  35 N16       30.10R
HOUMA*         MOSUNNY   55  46  71 N14       30.08R
PORT FOURCHON* SUNNY     57  46  67 N15       30.10R

$$

LAZ041-044-053-054-271600-
SOUTHWEST LOUISIANA

CITY           SKY/WX    TMP DP  RH WIND       PRES   REMARKS
LAKE CHARLES   SUNNY     59  43  55 N8        30.14R
LAFAYETTE      SUNNY     56  39  53 N13       30.12S
PATTERSON      SUNNY     57  32  38 N9        30.12R
SALT POINT       N/A     56  35  45 N15G22    30.10R
NEW IBERIA     SUNNY     57  40  52 N12       30.13R
CHENAULT AIRPK SUNNY     55  45  67 N6        30.14R

$$

LAZ027-028-271600-
CENTRAL LOUISIANA

CITY           SKY/WX    TMP DP  RH WIND       PRES   REMARKS
FORT POLK      SUNNY     55  46  70 NW1       30.12F
ALEXANDRIA INT SUNNY     55  44  66 VRB5      30.12F
ALEXANDRIA     SUNNY     54  41  61 W3        30.13S

$$

LAZ001-002-271600-
NORTHWEST LOUISIANA

CITY           SKY/WX    TMP DP  RH WIND       PRES   REMARKS
SHREVEPORT     MOSUNNY   54  43  66 W5        30.11S
BARKSDALE AFB  SUNNY     55  38  52 S2        30.11S
DTN SHREVEPORT SUNNY     54  40  59 SW5       30.11S

$$

LAZ014-016-271600-
NORTHEAST LOUISIANA

CITY           SKY/WX    TMP DP  RH WIND       PRES   REMARKS
MONROE         SUNNY     52  41  66 SW3       30.13S
TALLULAH       SUNNY     51  37  58 N7        30.13R

$$




USA.gov is the U.S. government's official web portal to all federal, state and local government web resources and services.